Regional Weather Roundup
Issued by NWS Goodland, KS

Home | Current Version | Previous Version | Graphics & Text | Print | Product List | Glossary On
Versions: 1 2 3 4 5 6 7 8 9 10 11 12 13 14 15 16 17 18 19 20 21 22 23 24 25 26 27 28 29 30 31 32 33 34 35 36 37 38 39 40 41 42 43 44 45 46 47 48 49 50
893
ASUS43 KGLD 261208
RWRGLD

GOODLAND FORECAST AREA HOURLY WEATHER ROUNDUP
NATIONAL WEATHER SERVICE GOODLAND KS
600 AM MDT WED APR 26 2017

...OFFICIAL OBSERVATIONS...

CITY           SKY/WX    TMP DP  RH WIND       PRES   REMARKS
GOODLAND KS    CLOUDY    31  27  85 N13       29.81R
HILL CITY KS   MOCLDY    36  27  69 NW16G24   29.79R
IMPERIAL NEB   PTCLDY    28  24  85 NW12      29.83R WCI  18
MCCOOK NEB     CLOUDY    34  26  72 NW17G23   29.80F
AKRON CO       MOCLDY    30  26  85 NW14      29.80S WCI  19
BURLINGTON CO  NOT AVBL
LIMON CO       CLEAR     28  26  92 NW17      29.80R WCI  16
$$

...UNOFFICIAL OBSERVATIONS...

CITY           SKY/WX    TMP DP  RH WIND       PRES   REMARKS
LENORA KS        N/A     32  32 100 MISG        N/A
NORTON KS      CLOUDY    34  23  64 NW15G22   29.77
SHARON SPRINGS   N/A     33  28  83 N14G21      N/A
TRENTON NEB      N/A     28  32 100 NW7         N/A
KIT CARSON CO    N/A     31  27  84 MISG        N/A
YUMA CO        CLOUDY    32  28  86 NW13G20   29.82R
$$




USA.gov is the U.S. government's official web portal to all federal, state and local government web resources and services.